Time,TemperatureF,DewpointF,PressureIn,WindDirection,WindDirectionDegrees,WindSpeedMPH,WindSpeedGustMPH,Humidity,HourlyPrecipIn,Conditions,Clouds,dailyrainin,SoftwareType,DateUTC
2013-07-10 00:06:00,74.7,72.0,30.01,ESE,121,0.0,2.0,90,0.00,,,0.00,weatherlink.com 1.10,2013-07-10 04:06:00,
2013-07-10 00:21:00,74.6,72.0,30.02,SE,146,1.0,4.0,90,0.00,,,0.00,weatherlink.com 1.10,2013-07-10 04:21:00,
2013-07-10 00:36:00,74.9,72.0,30.01,South,174,1.0,3.0,90,0.00,,,0.00,weatherlink.com 1.10,2013-07-10 04:36:00,
2013-07-10 00:51:00,75.0,72.0,30.01,SSW,207,0.0,4.0,90,0.00,,,0.00,weatherlink.com 1.10,2013-07-10 04:51:00,
2013-07-10 01:06:00,74.9,72.0,30.00,South,186,0.0,4.0,90,0.00,,,0.00,weatherlink.com 1.10,2013-07-10 05:06:00,
2013-07-10 01:21:00,74.4,71.0,30.00,SSE,166,0.0,1.0,90,0.00,,,0.00,weatherlink.com 1.10,2013-07-10 05:21:00,
2013-07-10 01:36:00,73.9,71.0,29.99,SSE,149,0.0,2.0,90,0.00,,,0.00,weatherlink.com 1.10,2013-07-10 05:36:00,
2013-07-10 01:51:00,73.6,71.0,29.99,South,176,0.0,2.0,90,0.00,,,0.00,weatherlink.com 1.10,2013-07-10 05:51:00,
2013-07-10 02:06:00,73.4,70.0,29.98,South,171,3.0,4.0,90,0.00,,,0.00,weatherlink.com 1.10,2013-07-10 06:06:00,
2013-07-10 02:21:00,73.4,70.0,29.98,SSW,193,1.0,4.0,90,0.00,,,0.00,weatherlink.com 1.10,2013-07-10 06:21:00,
2013-07-10 02:36:00,73.2,70.0,29.97,SW,219,2.0,4.0,90,0.00,,,0.00,weatherlink.com 1.10,2013-07-10 06:36:00,
2013-07-10 02:51:00,73.3,71.0,29.96,South,171,2.0,6.0,91,0.00,,,0.00,weatherlink.com 1.10,2013-07-10 06:51:00,
2013-07-10 03:06:00,73.2,71.0,29.97,SW,226,2.0,5.0,91,0.00,,,0.00,weatherlink.com 1.10,2013-07-10 07:06:00,
2013-07-10 03:21:00,72.9,70.0,29.96,SSW,195,1.0,4.0,91,0.00,,,0.00,weatherlink.com 1.10,2013-07-10 07:21:00,
2013-07-10 03:36:00,72.5,70.0,29.96,SE,141,1.0,2.0,90,0.00,,,0.00,weatherlink.com 1.10,2013-07-10 07:36:00,
2013-07-10 03:51:00,72.4,69.0,29.96,SSW,203,2.0,3.0,90,0.00,,,0.00,weatherlink.com 1.10,2013-07-10 07:51:00,
2013-07-10 04:06:00,72.4,69.0,29.96,SSE,154,0.0,1.0,90,0.00,,,0.00,weatherlink.com 1.10,2013-07-10 08:06:00,
2013-07-10 04:22:00,72.2,69.0,29.96,SE,145,0.0,1.0,90,0.00,,,0.00,weatherlink.com 1.10,2013-07-10 08:22:00,
2013-07-10 04:37:00,71.7,69.0,29.96,SE,145,0.0,0.0,90,0.00,,,0.00,weatherlink.com 1.10,2013-07-10 08:37:00,
2013-07-10 04:52:00,71.5,69.0,29.95,SE,139,0.0,0.0,90,0.00,,,0.00,weatherlink.com 1.10,2013-07-10 08:52:00,
2013-07-10 05:07:00,71.3,68.0,29.96,South,191,0.0,0.0,90,0.00,,,0.00,weatherlink.com 1.10,2013-07-10 09:07:00,
2013-07-10 05:22:00,71.1,68.0,29.96,SSE,153,0.0,0.0,90,0.00,,,0.00,weatherlink.com 1.10,2013-07-10 09:22:00,
2013-07-10 05:37:00,71.0,68.0,29.96,SE,146,0.0,0.0,90,0.00,,,0.00,weatherlink.com 1.10,2013-07-10 09:37:00,
2013-07-10 05:52:00,71.1,68.0,29.96,SSE,160,0.0,0.0,90,0.00,,,0.00,weatherlink.com 1.10,2013-07-10 09:52:00,
2013-07-10 06:07:00,71.5,69.0,29.96,SE,143,0.0,0.0,90,0.00,,,0.00,weatherlink.com 1.10,2013-07-10 10:07:00,
2013-07-10 06:22:00,71.8,69.0,29.96,SSE,158,2.0,3.0,90,0.00,,,0.00,weatherlink.com 1.10,2013-07-10 10:22:00,
2013-07-10 06:37:00,72.2,69.0,29.97,SSE,157,1.0,3.0,90,0.00,,,0.00,weatherlink.com 1.10,2013-07-10 10:37:00,
2013-07-10 06:52:00,72.7,70.0,29.96,SSE,148,1.0,3.0,90,0.00,,,0.00,weatherlink.com 1.10,2013-07-10 10:52:00,
2013-07-10 07:07:00,73.2,70.0,29.96,SSE,148,1.0,2.0,90,0.00,,,0.00,weatherlink.com 1.10,2013-07-10 11:07:00,
2013-07-10 07:22:00,73.9,71.0,29.96,SSE,148,1.0,4.0,90,0.00,,,0.00,weatherlink.com 1.10,2013-07-10 11:22:00,
2013-07-10 07:37:00,74.9,72.0,29.96,SSW,200,3.0,6.0,90,0.00,,,0.00,weatherlink.com 1.10,2013-07-10 11:37:00,
2013-07-10 07:52:00,76.3,74.0,29.95,SSW,211,4.0,6.0,91,0.00,,,0.00,weatherlink.com 1.10,2013-07-10 11:52:00,
2013-07-10 08:07:00,78.1,75.0,29.95,SW,215,2.0,7.0,90,0.00,,,0.00,weatherlink.com 1.10,2013-07-10 12:07:00,
2013-07-10 08:22:00,79.3,76.0,29.95,SW,233,7.0,9.0,90,0.00,,,0.00,weatherlink.com 1.10,2013-07-10 12:22:00,
2013-07-10 08:37:00,79.1,76.0,29.95,SW,223,4.0,10.0,89,0.00,,,0.00,weatherlink.com 1.10,2013-07-10 12:37:00,
2013-07-10 08:52:00,80.0,77.0,29.95,South,183,3.0,9.0,89,0.00,,,0.00,weatherlink.com 1.10,2013-07-10 12:52:00,
2013-07-10 09:07:00,80.2,77.0,29.95,WSW,238,3.0,7.0,89,0.00,,,0.00,weatherlink.com 1.10,2013-07-10 13:07:00,
2013-07-10 09:22:00,80.4,77.0,29.95,SW,226,5.0,10.0,88,0.00,,,0.00,weatherlink.com 1.10,2013-07-10 13:22:00,
2013-07-10 09:37:00,80.5,76.0,29.95,WSW,255,6.0,9.0,87,0.00,,,0.00,weatherlink.com 1.10,2013-07-10 13:37:00,
2013-07-10 09:52:00,81.3,77.0,29.95,WSW,257,6.0,12.0,86,0.00,,,0.00,weatherlink.com 1.10,2013-07-10 13:52:00,
2013-07-10 10:07:00,81.6,77.0,29.95,West,281,4.0,14.0,85,0.00,,,0.00,weatherlink.com 1.10,2013-07-10 14:07:00,
2013-07-10 10:22:00,83.5,77.0,29.94,WSW,248,5.0,10.0,81,0.00,,,0.00,weatherlink.com 1.10,2013-07-10 14:22:00,
2013-07-10 10:37:00,84.1,77.0,29.95,SSW,209,6.0,13.0,78,0.00,,,0.00,weatherlink.com 1.10,2013-07-10 14:37:00,
2013-07-10 10:52:00,83.6,77.0,29.94,West,281,3.0,11.0,80,0.00,,,0.00,weatherlink.com 1.10,2013-07-10 14:52:00,
2013-07-10 11:07:00,83.3,77.0,29.94,SW,232,3.0,11.0,80,0.00,,,0.00,weatherlink.com 1.10,2013-07-10 15:07:00,
2013-07-10 11:22:00,83.4,77.0,29.93,WSW,255,3.0,7.0,80,0.00,,,0.00,weatherlink.com 1.10,2013-07-10 15:22:00,
2013-07-10 11:37:00,84.1,77.0,29.93,WSW,252,4.0,10.0,78,0.00,,,0.00,weatherlink.com 1.10,2013-07-10 15:37:00,
2013-07-10 11:52:00,84.9,76.0,29.93,SSW,213,6.0,12.0,74,0.00,,,0.00,weatherlink.com 1.10,2013-07-10 15:52:00,
2013-07-10 12:07:00,84.8,75.0,29.93,West,272,6.0,13.0,73,0.00,,,0.00,weatherlink.com 1.10,2013-07-10 16:07:00,
2013-07-10 12:22:00,85.4,75.0,29.93,WNW,297,4.0,10.0,71,0.00,,,0.00,weatherlink.com 1.10,2013-07-10 16:22:00,
2013-07-10 12:37:00,85.6,77.0,29.93,WSW,253,6.0,10.0,75,0.00,,,0.00,weatherlink.com 1.10,2013-07-10 16:37:00,
2013-07-10 12:53:00,85.7,77.0,29.93,WSW,248,8.0,11.0,75,0.00,,,0.00,weatherlink.com 1.10,2013-07-10 16:53:00,
2013-07-10 13:08:00,87.0,77.0,29.92,SW,216,7.0,18.0,72,0.00,,,0.00,weatherlink.com 1.10,2013-07-10 17:08:00,
2013-07-10 13:23:00,85.6,75.0,29.93,WSW,242,10.0,13.0,70,0.00,,,0.00,weatherlink.com 1.10,2013-07-10 17:23:00,
2013-07-10 13:38:00,84.1,74.0,29.93,SW,218,10.0,16.0,71,0.00,,,0.00,weatherlink.com 1.10,2013-07-10 17:38:00,
2013-07-10 13:53:00,83.4,74.0,29.92,WSW,257,13.0,13.0,72,0.00,,,0.00,weatherlink.com 1.10,2013-07-10 17:53:00,
2013-07-10 14:08:00,83.6,74.0,29.91,West,276,4.0,10.0,72,0.00,,,0.00,weatherlink.com 1.10,2013-07-10 18:08:00,
2013-07-10 14:23:00,83.6,75.0,29.89,WSW,241,3.0,7.0,74,0.00,,,0.00,weatherlink.com 1.10,2013-07-10 18:23:00,
2013-07-10 14:38:00,83.6,74.0,29.89,WSW,244,3.0,11.0,73,0.00,,,0.00,weatherlink.com 1.10,2013-07-10 18:38:00,
2013-07-10 14:53:00,84.8,75.0,29.88,WSW,240,5.0,10.0,72,0.00,,,0.00,weatherlink.com 1.10,2013-07-10 18:53:00,
2013-07-10 15:08:00,86.5,73.0,29.88,WSW,243,8.0,13.0,64,0.00,,,0.00,weatherlink.com 1.10,2013-07-10 19:08:00,
2013-07-10 15:23:00,86.1,73.0,29.88,SSW,198,4.0,11.0,66,0.00,,,0.00,weatherlink.com 1.10,2013-07-10 19:23:00,
2013-07-10 15:38:00,87.0,74.0,29.88,SSE,158,3.0,7.0,66,0.00,,,0.00,weatherlink.com 1.10,2013-07-10 19:38:00,
2013-07-10 15:53:00,86.2,76.0,29.87,SSW,209,5.0,9.0,72,0.00,,,0.00,weatherlink.com 1.10,2013-07-10 19:53:00,
2013-07-10 16:08:00,86.1,77.0,29.87,SSW,203,7.0,9.0,74,0.00,,,0.00,weatherlink.com 1.10,2013-07-10 20:08:00,
2013-07-10 16:23:00,86.8,77.0,29.86,SSW,200,4.0,10.0,73,0.00,,,0.00,weatherlink.com 1.10,2013-07-10 20:23:00,
2013-07-10 16:38:00,87.1,77.0,29.86,SSW,203,4.0,12.0,72,0.00,,,0.00,weatherlink.com 1.10,2013-07-10 20:38:00,
2013-07-10 16:53:00,87.4,77.0,29.85,WSW,237,7.0,10.0,70,0.00,,,0.00,weatherlink.com 1.10,2013-07-10 20:53:00,
2013-07-10 17:08:00,87.0,77.0,29.84,SSW,196,7.0,13.0,73,0.00,,,0.00,weatherlink.com 1.10,2013-07-10 21:08:00,
2013-07-10 17:23:00,86.7,78.0,29.83,SSE,155,4.0,10.0,76,0.00,,,0.00,weatherlink.com 1.10,2013-07-10 21:23:00,
2013-07-10 17:38:00,86.2,78.0,29.83,SW,216,9.0,13.0,76,0.00,,,0.00,weatherlink.com 1.10,2013-07-10 21:38:00,
2013-07-10 17:53:00,86.4,78.0,29.84,SW,216,7.0,10.0,76,0.00,,,0.00,weatherlink.com 1.10,2013-07-10 21:53:00,
2013-07-10 18:08:00,86.6,78.0,29.83,SW,227,7.0,9.0,75,0.00,,,0.00,weatherlink.com 1.10,2013-07-10 22:08:00,
2013-07-10 18:23:00,86.1,78.0,29.84,SSW,206,5.0,10.0,76,0.00,,,0.00,weatherlink.com 1.10,2013-07-10 22:23:00,
2013-07-10 18:38:00,85.9,78.0,29.85,South,188,4.0,8.0,78,0.00,,,0.00,weatherlink.com 1.10,2013-07-10 22:38:00,
2013-07-10 18:53:00,85.5,77.0,29.84,SW,215,6.0,11.0,75,0.00,,,0.00,weatherlink.com 1.10,2013-07-10 22:53:00,
2013-07-10 19:08:00,84.3,77.0,29.86,SW,216,3.0,7.0,79,0.00,,,0.00,weatherlink.com 1.10,2013-07-10 23:08:00,
2013-07-10 19:23:00,83.5,77.0,29.86,WSW,244,7.0,10.0,81,0.00,,,0.00,weatherlink.com 1.10,2013-07-10 23:23:00,
2013-07-10 19:38:00,82.8,76.0,29.86,SW,226,4.0,9.0,81,0.00,,,0.00,weatherlink.com 1.10,2013-07-10 23:38:00,
2013-07-10 19:53:00,82.2,76.0,29.85,SW,225,2.0,7.0,81,0.00,,,0.00,weatherlink.com 1.10,2013-07-10 23:53:00,
2013-07-10 20:08:00,81.7,76.0,29.86,SW,233,4.0,7.0,82,0.00,,,0.00,weatherlink.com 1.10,2013-07-11 00:08:00,
2013-07-10 20:23:00,81.1,76.0,29.86,SW,231,3.0,7.0,84,0.00,,,0.00,weatherlink.com 1.10,2013-07-11 00:23:00,
2013-07-10 20:38:00,80.5,76.0,29.86,SW,229,2.0,5.0,85,0.00,,,0.00,weatherlink.com 1.10,2013-07-11 00:38:00,
2013-07-10 20:53:00,80.1,76.0,29.86,SW,217,3.0,4.0,86,0.00,,,0.00,weatherlink.com 1.10,2013-07-11 00:53:00,
2013-07-10 21:08:00,80.1,76.0,29.87,SSW,193,3.0,6.0,87,0.00,,,0.00,weatherlink.com 1.10,2013-07-11 01:08:00,
2013-07-10 21:23:00,80.5,76.0,29.87,SW,229,4.0,10.0,85,0.00,,,0.00,weatherlink.com 1.10,2013-07-11 01:23:00,
2013-07-10 21:38:00,80.8,75.0,29.87,SSW,205,8.0,9.0,83,0.00,,,0.00,weatherlink.com 1.10,2013-07-11 01:38:00,
2013-07-10 21:53:00,80.9,75.0,29.87,SW,232,6.0,11.0,83,0.00,,,0.00,weatherlink.com 1.10,2013-07-11 01:53:00,
2013-07-10 22:08:00,80.7,75.0,29.87,WSW,247,4.0,9.0,83,0.00,,,0.00,weatherlink.com 1.10,2013-07-11 02:08:00,
2013-07-10 22:23:00,80.3,75.0,29.86,SW,219,3.0,8.0,84,0.00,,,0.00,weatherlink.com 1.10,2013-07-11 02:23:00,
2013-07-10 22:38:00,80.0,75.0,29.86,WSW,241,2.0,7.0,85,0.00,,,0.00,weatherlink.com 1.10,2013-07-11 02:38:00,
2013-07-10 22:53:00,79.6,75.0,29.86,SW,227,3.0,6.0,86,0.00,,,0.00,weatherlink.com 1.10,2013-07-11 02:53:00,
2013-07-10 23:08:00,79.3,75.0,29.85,SW,232,1.0,4.0,86,0.00,,,0.00,weatherlink.com 1.10,2013-07-11 03:08:00,
2013-07-10 23:23:00,78.9,75.0,29.85,SSW,199,1.0,2.0,87,0.00,,,0.00,weatherlink.com 1.10,2013-07-11 03:23:00,
2013-07-10 23:38:00,78.5,75.0,29.85,SSW,211,0.0,2.0,88,0.00,,,0.00,weatherlink.com 1.10,2013-07-11 03:38:00,
2013-07-10 23:53:00,78.0,75.0,29.84,SSE,166,0.0,3.0,89,0.00,,,0.00,weatherlink.com 1.10,2013-07-11 03:53:00,